TimeEET,TemperatureF,Dew PointF,Humidity,Sea Level PressureIn,VisibilityMPH,Wind Direction,Wind SpeedMPH,Gust SpeedMPH,PrecipitationIn,Events,Conditions,WindDirDegrees,DateUTC
12:50 AM,66.2,57.2,73,29.95,6.2,SE,9.2,-,N/A,,Mostly Cloudy,140,2012-11-28 22:50:00
1:50 AM,66.2,57.2,73,29.92,6.2,SE,11.5,-,N/A,,Mostly Cloudy,140,2012-11-28 23:50:00
2:50 AM,64.4,57.2,77,29.92,6.2,SSE,13.8,-,N/A,,Mostly Cloudy,160,2012-11-29 00:50:00
3:50 AM,66.2,57.2,73,29.89,6.2,SSE,11.5,-,N/A,,Mostly Cloudy,150,2012-11-29 01:50:00
4:50 AM,66.2,57.2,73,29.86,6.2,SSE,13.8,27.6,N/A,,Mostly Cloudy,160,2012-11-29 02:50:00
5:20 AM,66.2,55.4,68,29.86,6.2,SSE,16.1,27.6,N/A,,Scattered Clouds,160,2012-11-29 03:20:00
5:50 AM,66.2,57.2,73,29.86,6.2,SSE,16.1,28.8,N/A,,Scattered Clouds,160,2012-11-29 03:50:00
6:20 AM,66.2,55.4,68,29.83,6.2,South,13.8,25.3,N/A,,Scattered Clouds,170,2012-11-29 04:20:00
6:50 AM,66.2,55.4,68,29.86,6.2,South,17.3,-,N/A,,Scattered Clouds,170,2012-11-29 04:50:00
7:20 AM,66.2,57.2,73,29.83,6.2,SSE,13.8,-,N/A,,Mostly Cloudy,160,2012-11-29 05:20:00
7:50 AM,66.2,57.2,73,29.83,6.2,SSE,10.4,-,N/A,,Mostly Cloudy,150,2012-11-29 05:50:00
8:20 AM,68.0,55.4,64,29.83,6.2,SSE,11.5,-,N/A,,Mostly Cloudy,150,2012-11-29 06:20:00
8:50 AM,66.2,55.4,68,29.83,6.2,SSE,13.8,-,N/A,,Scattered Clouds,160,2012-11-29 06:50:00
9:20 AM,68.0,55.4,64,29.83,6.2,South,20.7,-,N/A,,Mostly Cloudy,180,2012-11-29 07:20:00
9:50 AM,68.0,55.4,64,29.80,6.2,South,21.9,-,N/A,,Mostly Cloudy,170,2012-11-29 07:50:00
10:20 AM,68.0,53.6,60,29.80,6.2,South,23.0,-,N/A,,Mostly Cloudy,170,2012-11-29 08:20:00
10:50 AM,69.8,55.4,60,29.80,6.2,SSE,21.9,36.8,N/A,,Mostly Cloudy,160,2012-11-29 08:50:00
11:20 AM,69.8,55.4,60,29.80,6.2,SSE,21.9,33.4,N/A,,Mostly Cloudy,160,2012-11-29 09:20:00
11:50 AM,68.0,55.4,64,29.77,6.2,South,19.6,31.1,N/A,,Mostly Cloudy,170,2012-11-29 09:50:00
12:20 PM,69.8,57.2,64,29.77,6.2,South,21.9,33.4,N/A,,Scattered Clouds,170,2012-11-29 10:20:00
12:50 PM,69.8,55.4,60,29.74,6.2,South,18.4,29.9,N/A,,Scattered Clouds,170,2012-11-29 10:50:00
1:20 PM,69.8,55.4,60,29.74,6.2,South,20.7,32.2,N/A,,Mostly Cloudy,180,2012-11-29 11:20:00
1:50 PM,69.8,55.4,60,29.74,6.2,South,21.9,34.5,N/A,,Mostly Cloudy,170,2012-11-29 11:50:00
2:20 PM,68.0,57.2,68,29.71,5.6,SSE,18.4,31.1,N/A,,Mostly Cloudy,160,2012-11-29 12:20:00
2:50 PM,69.8,55.4,60,29.71,5.6,SSE,17.3,-,N/A,,Mostly Cloudy,160,2012-11-29 12:50:00
3:20 PM,69.8,55.4,60,29.71,5.6,South,13.8,25.3,N/A,,Mostly Cloudy,170,2012-11-29 13:20:00
3:50 PM,68.0,55.4,64,29.71,5.6,South,17.3,28.8,N/A,,Mostly Cloudy,170,2012-11-29 13:50:00
4:20 PM,68.0,57.2,68,29.71,5.0,South,18.4,29.9,N/A,Rain,Light Rain,170,2012-11-29 14:20:00
4:50 PM,68.0,59.0,73,29.71,5.0,SSE,13.8,25.3,N/A,Rain,Light Rain,160,2012-11-29 14:50:00
5:20 PM,66.2,59.0,78,29.71,3.7,SSE,17.3,29.9,N/A,Rain,Rain,150,2012-11-29 15:20:00
5:50 PM,66.2,59.0,78,29.74,4.3,South,11.5,-,N/A,Rain,Rain,170,2012-11-29 15:50:00
6:50 PM,66.2,59.0,78,29.71,5.6,SSE,15.0,26.5,N/A,,Mostly Cloudy,160,2012-11-29 16:50:00
7:20 PM,66.2,60.8,83,29.71,5.0,SSE,21.9,33.4,N/A,Rain,Light Rain,160,2012-11-29 17:20:00
7:50 PM,64.4,59.0,83,29.71,4.3,South,20.7,32.2,N/A,Rain-Thunderstorm,Light Thunderstorms and Rain,180,2012-11-29 17:50:00
8:20 PM,64.4,59.0,83,29.71,6.2,South,6.9,-,N/A,,Scattered Clouds,190,2012-11-29 18:20:00
8:50 PM,64.4,59.0,83,29.74,6.2,South,6.9,-,N/A,,Mostly Cloudy,180,2012-11-29 18:50:00
9:20 PM,64.4,57.2,77,29.74,6.2,South,15.0,-,N/A,,Mostly Cloudy,180,2012-11-29 19:20:00
9:50 PM,66.2,59.0,78,29.74,6.2,South,12.7,-,N/A,,Mostly Cloudy,190,2012-11-29 19:50:00
10:50 PM,66.2,57.2,73,29.74,6.2,South,15.0,-,N/A,,Mostly Cloudy,170,2012-11-29 20:50:00
11:50 PM,66.2,59.0,78,29.74,6.2,South,11.5,-,N/A,,Mostly Cloudy,180,2012-11-29 21:50:00